COSMOS 2251 DEB, 36439

Orbit data source: Space-Track

COSMOS 2251 DEB, 36439 is space debris in LEO originally from a launch on Wed, 16 Jun 1993 UTC launched from the Plesetsk Missile And Space Complex (PKMTR). The debris from Iridium 33, an American commercial communications satellite, has been tracked extensively since its accidental collision with the defunct Russian satellite Cosmos 2251 in 2009. This event, occurring at high speed in low Earth orbit (LEO), generated thousands of pieces of space debris, significantly increasing the risk of further collisions. The Iridium 33 debris cloud has impacted space traffic management and orbital debris mitigation strategies, making it a subject of ongoing study in space situational awareness.

Loading next visibility...
Identifier
36439, 1993-036BAN
Orbit
LEO
Country
Flag of CISCIS
Related business
Manufacturer
Unknown
Mission
Spacecraft
Bus & Motor
Unknown
Mass
Unknown
Launch date (UTC)
1993-06-16 (33 years ago)
Launch vehicle
Unknown
Launch site
Plesetsk Missile And Space Complex (PKMTR)
Object type
Payload
Rocket body
Debris
Shape & HBR
Unknown shape, 0.1 m
Radar Cross Section
Small (<0.1 m²)

Expand to show TLE details & history
Last TLE update: 3 days ago

TLE from 3 days ago
0 COSMOS 2251 DEB
1 36439U 93036BAN 26032.45318701  .00001243  00000-0  11696-2 0  9993
2 36439  73.9708 315.7559 0428015 277.9669  77.3083 13.48061510592960
Epoch: 2026-02-01T10:52Z
TLE epoch observation values (Epoch: 2026-02-01T10:52:35.357Z)
Latitude
0.00001°
Longitude
20.94597°
Altitude
1,024.941 km
Speed
7.367 km/s
True Right ascension
21h 03m 01s
True Declination
0° 00' 00"
Sunlit
Object was in daylight at epoch
Visualization orbit readout
Latitude
Unknown
Longitude
Unknown
Altitude
Unknown
Speed
Unknown
Apparent Right ascension
Unknown
Apparent Declination
Unknown
Sunlit
N/A
Visualization observer readout
Local Sidereal Time
07:48:14
Azimuth
Unknown
Elevation
Unknown
Doppler factor
Unknown
Orbital elements
Apogee altitude
1,396.217 km
Perigee altitude
758.024 km
Semi-major axis
7,455.258 km
Eccentricity
0.0428
Inclination
73.9708°
RAAN
315.7559°
Arg. of periapsis
277.9669°
True anomaly
82.14428°
Mean anomaly
77.3083°
Eccentric anomaly
79.72129°
Mean motion
3.3717 °/min
Orbital period
106.77 mins
BSTAR
0.0011696
Loading maneuver chart data...
Computing Atmospheric mass density...
Loading historical data...
Loading historical data...
Loading historical data...
Loading historical data...
Loading historical data...
Loading historical data...
Loading historical data...

Documentation

Showing up to 5 results
|